[[{"header":{"parameterUnit":"m.s-1","parameterCategory":1,"la1":30.2991,"la2":30.254,"lo1":-89.0895,"lo2":-89.0444,"dy":0.0017,"dx":0.0017,"nx":28,"ny":28,"refTime":"2025-06-21T09:00:00:Z","depth":0,"parameterNumber":2,"parameterNumberName":"U-component_of_WINDS"},"data":[0,0,0,0,0,0,0,0,0,0,0,0,0,0,0,0,0,0,0,0,0,0,0,0,0,0,0,0,0,0,0,0,0,0,0,0,0,0,0,0,0,0,0,0,0,0,0,0,0,0,0,0,0,0,0,0,0,0,0.6467,0.6467,0,0.6459,0.6459,0.6459,0.6439,0.6439,0.6438,0.6438,0.6429,0.6429,0.6429,0,0,0,0,0,0,0,0,0,0,0,0,0,0.6465,0.6465,0.6467,0.6467,0.6467,0.6459,0.6459,0.6459,0.6439,0.6439,0.6438,0.6438,0.6429,0.6429,0.6429,0,0,0,0,0,0,0,0,0,0,0,0,0,0.6462,0.6465,0.6467,0.6456,0.6455,0.6459,0.6459,0.6459,0.6439,0.6438,0.6438,0.6437,0.6429,0.6429,0.6429,0.6443,0,0,0.643,0.643,0,0,0,0,0,0,0,0,0.6462,0.6462,0.6458,0.6457,0.6456,0.6449,0.6455,0.6453,0.6439,0.6445,0.6438,0.6437,0.6436,0.6436,0.6435,0.6442,0.6442,0.643,0.643,0.643,0.643,0,0,0,0,0,0,0,0.6462,0.6462,0.6464,0.6458,0.6457,0.6451,0.645,0.6454,0.6444,0.6445,0.6443,0.6442,0.6435,0.6435,0.6435,0.6442,0.643,0.643,0.643,0.643,0.6458,0.6459,0,0,0,0,0,0,0.6464,0.6463,0.6464,0.6464,0.6458,0.6452,0.6451,0.6452,0.6444,0.6442,0.6443,0.6442,0.6435,0.6435,0.6435,0.6449,0.643,0.643,0.643,0.6458,0.6458,0.6459,0,0,0,0,0,0,0.6464,0.6465,0.6465,0.6463,0.6462,0.6453,0.6454,0.6452,0.6452,0.6443,0.6441,0.6445,0.6435,0.6434,0.6441,0.6448,0.643,0.6431,0.6457,0.6458,0.6459,0.6479,0,0,0,0,0,0,0.6464,0.6465,0.647,0.6463,0.6463,0.6471,0.6455,0.6452,0.6453,0.6451,0.6444,0.6442,0.6434,0.644,0.6441,0.6448,0.6431,0.6456,0.6457,0.6458,0.6477,0.648,0.6483,0,0,0,0,0,0.6464,0.6476,0.6471,0.6471,0.6469,0.6472,0.6471,0.6462,0.6453,0.6458,0.6452,0.6443,0.6448,0.6441,0.6442,0.6449,0.6456,0.6457,0.6458,0.6476,0.6479,0.6482,0,0,0,0,0,0,0.6485,0.6475,0.6469,0.6479,0.6476,0.6468,0.6474,0.6466,0.6465,0.6464,0.6452,0.645,0.6458,0.6454,0.6447,0.6461,0.645,0.6452,0.6463,0.6467,0.6469,0.6469,0.6431,0,0,0,0,0,0.6491,0.6494,0.6485,0.6495,0.6494,0.6484,0.6485,0.6478,0.6474,0.6473,0.6468,0.6464,0.6465,0.6466,0.6466,0.6477,0.6474,0.6482,0.6485,0.6487,0.6488,0.6492,0.6495,0.6463,0.6463,0.6463,0,0,0.6502,0.6497,0.65,0.6499,0.6496,0.6498,0.6483,0.6487,0.6489,0.6474,0.6479,0.6475,0.647,0.6478,0.6482,0.6476,0.6497,0.6489,0.6491,0.6491,0.6494,0.6497,0.65,0.6464,0.6464,0.6464,0,0,0.6525,0.6522,0.6529,0.6526,0.6522,0.6515,0.6517,0.651,0.6507,0.6512,0.65,0.6502,0.6504,0.6501,0.65,0.652,0.6511,0.6521,0.6534,0.6538,0.6541,0.6543,0.6549,0.6551,0.6522,0.6522,0.6522,0,0.654,0.6544,0.6534,0.6538,0.6537,0.6524,0.653,0.6528,0.6524,0.6523,0.6517,0.6518,0.6514,0.6521,0.6526,0.6526,0.6527,0.6521,0.6541,0.6543,0.6545,0.6551,0.6553,0.6523,0.6523,0.6523,0.6523,0,0.6562,0.6565,0.6571,0.6567,0.6567,0.6572,0.6563,0.6564,0.6557,0.6551,0.6556,0.6551,0.6549,0.655,0.6544,0.6556,0.6552,0.6544,0.6532,0.655,0.6554,0.6557,0.6525,0.6524,0.6524,0.6524,0,0,0.6596,0.6587,0.6589,0.6586,0.658,0.6582,0.6587,0.6585,0.6586,0.6583,0.6586,0.6588,0.658,0.6578,0.6571,0.6575,0.659,0.6566,0.6566,0.6569,0.6601,0.6606,0.6609,0.6584,0.6584,0.6585,0.6601,0,0.6616,0.6624,0.6614,0.6623,0.6625,0.6612,0.6616,0.6612,0.6607,0.6607,0.6601,0.6602,0.6592,0.6591,0.6594,0.6587,0.6596,0.6586,0.6585,0.6585,0.6585,0.6612,0.6618,0.6633,0.6603,0.6603,0.6604,0,0.6641,0.6639,0.6648,0.664,0.6641,0.6644,0.6641,0.6642,0.6638,0.6633,0.6631,0.6623,0.6626,0.6615,0.6618,0.6612,0.6611,0.6608,0.6608,0.6607,0.6595,0.661,0.6638,0.664,0.6607,0.6607,0.6606,0,0.6663,0.6663,0.6668,0.6667,0.6659,0.6661,0.6658,0.6652,0.6652,0.6649,0.6648,0.6647,0.6645,0.6644,0.6634,0.6628,0.6639,0.6627,0.6634,0.6634,0.6636,0.6636,0.6664,0.6638,0.6638,0.6638,0.6638,0,0.6686,0.6691,0.6678,0.6681,0.6687,0.6676,0.6682,0.6677,0.6673,0.6674,0.6663,0.6664,0.6652,0.6652,0.6645,0.6648,0.6648,0.6644,0.6642,0.6644,0.6645,0.6643,0.6641,0.6638,0.6638,0.6638,0.6638,0,0.6712,0.6703,0.6708,0.6699,0.6697,0.6702,0.6694,0.6696,0.669,0.6692,0.6691,0.6681,0.6681,0.6671,0.6669,0.6664,0.6669,0.6666,0.6671,0.6669,0.6676,0.6675,0.6702,0.6705,0.6679,0.6679,0.6679,0,0.6726,0.673,0.6722,0.6722,0.6719,0.6719,0.6718,0.6708,0.6707,0.6702,0.6704,0.6703,0.6701,0.67,0.6692,0.669,0.6685,0.6695,0.6685,0.6687,0.6684,0.6683,0.6683,0.6697,0.6697,0.6697,0.6698,0,0.6752,0.6747,0.6746,0.6744,0.6743,0.6741,0.6737,0.6738,0.6727,0.6726,0.6725,0.6724,0.6721,0.6719,0.6715,0.6711,0.6702,0.6701,0.6702,0.6704,0.6706,0.6704,0.6675,0.67,0.67,0.67,0.6699,0.6699,0.6771,0.6774,0.6768,0.6767,0.6764,0.6761,0.6762,0.6756,0.6755,0.6751,0.6745,0.6745,0.6739,0.6733,0.673,0.6729,0.6724,0.6726,0.6726,0.6726,0.6727,0.6708,0.6728,0.6728,0.6728,0.6728,0.6728,0,0.6795,0.6791,0.679,0.6786,0.6785,0.6777,0.6773,0.6773,0.6772,0.6768,0.6766,0.6764,0.6762,0.6754,0.6751,0.6752,0.6748,0.6751,0.6751,0.675,0.6733,0.6731,0.6755,0.6755,0.6755,0.6755,0.6755,0.6755,0.6808,0.6811,0.6805,0.6807,0.6802,0.6802,0.68,0.6797,0.6793,0.6792,0.679,0.6785,0.6778,0.6775,0.6772,0.677,0.6768,0.6773,0.6769,0.6754,0.6751,0.6748,0.6747,0.6773,0.6773,0.6786,0.6786,0.6786]},{"header":{"parameterUnit":"m.s-1","parameterCategory":1,"la1":30.2991,"la2":30.254,"lo1":-89.0895,"lo2":-89.0444,"dy":0.0017,"dx":0.0017,"nx":28,"ny":28,"refTime":"2025-06-21T09:00:00:Z","depth":0,"parameterNumber":3,"parameterNumberName":"V-component_of_WINDS"},"data":[0,0,0,0,0,0,0,0,0,0,0,0,0,0,0,0,0,0,0,0,0,0,0,0,0,0,0,0,0,0,0,0,0,0,0,0,0,0,0,0,0,0,0,0,0,0,0,0,0,0,0,0,0,0,0,0,0,0,1.8757,1.8758,0,1.8828,1.8829,1.883,1.8809,1.8808,1.8806,1.8805,1.8875,1.8878,1.8881,0,0,0,0,0,0,0,0,0,0,0,0,0,1.86,1.8603,1.8757,1.8758,1.8759,1.8828,1.8829,1.883,1.8809,1.8808,1.8806,1.8804,1.8874,1.8878,1.8881,0,0,0,0,0,0,0,0,0,0,0,0,0,1.8669,1.8604,1.8757,1.8757,1.8758,1.8828,1.8829,1.883,1.881,1.8808,1.8806,1.8803,1.8873,1.8877,1.8882,1.8955,0,0,1.8897,1.8899,0,0,0,0,0,0,0,0,1.8665,1.8675,1.8756,1.8757,1.8758,1.8808,1.8799,1.8872,1.881,1.879,1.8805,1.8802,1.8854,1.886,1.8878,1.8959,1.8962,1.8897,1.89,1.8902,1.8903,0,0,0,0,0,0,0,1.866,1.8672,1.8785,1.8757,1.8759,1.8752,1.876,1.8813,1.8833,1.8792,1.879,1.8799,1.8854,1.8874,1.888,1.8963,1.8897,1.8901,1.8904,1.8906,1.9104,1.9106,0,0,0,0,0,0,1.8655,1.8668,1.8783,1.8787,1.8705,1.8757,1.8765,1.8794,1.8833,1.8837,1.8801,1.8798,1.8867,1.8874,1.8882,1.8969,1.8902,1.8907,1.8909,1.9102,1.9105,1.9107,0,0,0,0,0,0,1.8652,1.8666,1.878,1.8727,1.8741,1.8762,1.8794,1.8796,1.8816,1.884,1.8843,1.8817,1.8865,1.8875,1.8937,1.8971,1.8909,1.8913,1.9099,1.9103,1.9106,1.9145,0,0,0,0,0,0,1.8648,1.8665,1.8694,1.8728,1.8744,1.8835,1.8796,1.8799,1.8825,1.8821,1.8856,1.886,1.8864,1.893,1.8942,1.8977,1.8917,1.9096,1.9101,1.9105,1.914,1.9149,1.9157,0,0,0,0,0,1.8642,1.8702,1.8696,1.871,1.8781,1.8837,1.8846,1.8851,1.8828,1.8856,1.8871,1.8859,1.8966,1.8936,1.895,1.8987,1.9094,1.9099,1.9104,1.9137,1.9147,1.9156,0,0,0,0,0,0,1.8671,1.8706,1.87,1.8773,1.8802,1.8834,1.887,1.8862,1.8898,1.8894,1.8897,1.8905,1.8968,1.8983,1.895,1.9058,1.9026,1.9034,1.9046,1.9057,1.9064,1.9059,1.8921,0,0,0,0,0,1.8686,1.8729,1.8757,1.8819,1.8834,1.8849,1.8874,1.8875,1.8905,1.8917,1.8937,1.8966,1.9005,1.9032,1.907,1.9142,1.9149,1.9174,1.9182,1.9189,1.9196,1.9233,1.9245,1.9125,1.9125,1.9125,0,0,1.8717,1.8742,1.8769,1.8825,1.8848,1.8892,1.886,1.8908,1.894,1.8924,1.8984,1.8999,1.9031,1.9098,1.9128,1.9113,1.923,1.9196,1.9201,1.9204,1.924,1.9251,1.9261,1.9128,1.9128,1.9127,0,0,1.8795,1.8819,1.8872,1.8896,1.8931,1.8941,1.8953,1.8986,1.8995,1.9055,1.9044,1.9081,1.915,1.9173,1.9194,1.9279,1.9268,1.9292,1.9334,1.937,1.938,1.9388,1.9417,1.9428,1.9298,1.9299,1.9299,0,1.8829,1.8896,1.89,1.8949,1.8973,1.8962,1.9014,1.9036,1.9082,1.9098,1.908,1.9166,1.9187,1.9258,1.9279,1.9297,1.931,1.9288,1.9378,1.9387,1.9395,1.9422,1.9434,1.9301,1.9301,1.9301,1.93,0,1.8935,1.8981,1.9019,1.9064,1.9093,1.9143,1.9154,1.9182,1.918,1.9191,1.9251,1.9275,1.9317,1.9334,1.9333,1.9405,1.9394,1.9377,1.9345,1.9408,1.9435,1.9445,1.9305,1.9304,1.9303,1.9302,0,0,1.9034,1.908,1.9094,1.9114,1.9151,1.9186,1.9234,1.9276,1.93,1.9331,1.9371,1.9429,1.9413,1.9437,1.9438,1.947,1.9534,1.9449,1.9449,1.9463,1.9613,1.9625,1.9638,1.9527,1.9529,1.9531,1.961,0,1.9116,1.9203,1.9208,1.9286,1.9328,1.9316,1.9359,1.9385,1.9396,1.9432,1.9443,1.9484,1.9461,1.9475,1.9506,1.952,1.9564,1.9514,1.9563,1.9565,1.9555,1.9652,1.9665,1.9738,1.962,1.9622,1.9623,0,1.9222,1.9257,1.934,1.937,1.9387,1.9426,1.9463,1.9498,1.9527,1.9533,1.9558,1.9554,1.9602,1.9568,1.9634,1.9599,1.9619,1.9629,1.9632,1.9636,1.9598,1.9658,1.9762,1.9773,1.964,1.9639,1.9637,0,1.9285,1.9353,1.9411,1.9428,1.9464,1.9491,1.9507,1.9534,1.9558,1.9591,1.9606,1.9644,1.9664,1.9693,1.9698,1.9673,1.9763,1.973,1.9768,1.9768,1.9787,1.9786,1.9896,1.9801,1.9801,1.9801,1.9801,0,1.9375,1.9426,1.9439,1.9475,1.9531,1.9535,1.959,1.9604,1.9628,1.9664,1.9657,1.9691,1.9696,1.9731,1.9736,1.9788,1.9798,1.9803,1.9803,1.9803,1.9802,1.9816,1.9811,1.9804,1.9803,1.9803,1.9802,0,1.9455,1.9466,1.9528,1.9558,1.9566,1.9606,1.963,1.9663,1.9673,1.972,1.9731,1.9746,1.9787,1.9795,1.9843,1.9846,1.9908,1.9904,1.9899,1.9898,1.9935,1.9931,2.0057,2.0073,1.9969,1.997,1.9971,0,1.9511,1.955,1.9583,1.9608,1.9626,1.9665,1.969,1.9695,1.972,1.9755,1.9784,1.9824,1.9856,1.9922,1.9936,1.9973,1.9968,2.001,1.9974,1.9972,1.9968,1.9965,1.9968,2.0017,2.0018,2.0019,2.002,0,1.961,1.9613,1.965,1.9688,1.9718,1.9748,1.9776,1.9796,1.9804,1.9833,1.9875,1.9901,1.995,1.9989,2.0025,2.004,2.0031,2.0031,2.0041,2.0042,2.0037,2.0039,1.9917,2.0028,2.0027,2.0027,2.0026,2.0026,1.9679,1.9713,1.9741,1.9781,1.9803,1.9829,1.9862,1.9875,1.9911,1.9952,1.9952,1.9997,2.0023,2.0071,2.0088,2.0122,2.0109,2.0125,2.0129,2.0132,2.0135,2.0032,2.0129,2.0129,2.0129,2.0128,2.0128,0,1.9776,1.9794,1.9831,1.9871,1.9902,1.9892,1.9922,1.9948,1.9989,2.0014,2.0046,2.0093,2.0131,2.0148,2.0185,2.0209,2.0206,2.0218,2.0216,2.022,2.0145,2.0132,2.022,2.022,2.022,2.022,2.022,2.022,1.9831,1.9886,1.9892,1.9958,1.9975,2.002,2.0038,2.0061,2.0082,2.0135,2.0167,2.0178,2.0199,2.0237,2.027,2.0274,2.0287,2.0302,2.0304,2.0234,2.0225,2.0216,2.0204,2.0305,2.0305,2.0375,2.0376,2.0376]}]]